Time,TemperatureF,DewpointF,PressureIn,WindDirection,WindDirectionDegrees,WindSpeedMPH,WindSpeedGustMPH,Humidity,HourlyPrecipIn,Conditions,Clouds,dailyrainin,SoftwareType,DateUTC
2012-11-01 00:04:00,23.0,19.9,0.00,West,269,9.1,-999.0,87,0.00,,,-99.99,,2012-11-01 08:04:00,
2012-11-01 00:09:00,22.8,19.7,0.00,WNW,294,9.0,-999.0,87,0.00,,,-99.99,,2012-11-01 08:09:00,
2012-11-01 00:14:00,23.0,19.8,0.00,WNW,293,10.7,-999.0,87,0.00,,,-99.99,,2012-11-01 08:14:00,
2012-11-01 00:19:00,22.9,19.9,0.00,WNW,302,6.6,-999.0,88,0.00,,,-99.99,,2012-11-01 08:19:00,
2012-11-01 00:24:00,23.1,19.8,0.00,West,274,10.4,-999.0,87,0.00,,,-99.99,,2012-11-01 08:24:00,
2012-11-01 00:29:00,23.0,20.0,0.00,WNW,287,10.5,-999.0,87,0.00,,,-99.99,,2012-11-01 08:29:00,
2012-11-01 00:34:00,23.1,20.0,0.00,WNW,292,11.8,-999.0,87,0.00,,,-99.99,,2012-11-01 08:34:00,
2012-11-01 00:39:00,23.2,19.7,0.00,West,278,12.9,-999.0,86,0.00,,,-99.99,,2012-11-01 08:39:00,
2012-11-01 00:44:00,23.3,19.6,0.00,NW,310,9.0,-999.0,85,0.00,,,-99.99,,2012-11-01 08:44:00,
2012-11-01 00:49:00,23.2,19.5,0.00,NW,312,10.4,-999.0,85,0.00,,,-99.99,,2012-11-01 08:49:00,
2012-11-01 00:54:00,23.3,19.3,0.00,NW,308,13.6,-999.0,84,0.00,,,-99.99,,2012-11-01 08:54:00,
2012-11-01 00:59:00,23.3,19.2,0.00,West,279,10.2,-999.0,84,0.00,,,-99.99,,2012-11-01 08:59:00,
2012-11-01 01:04:00,23.5,18.7,0.00,WNW,302,9.2,-999.0,81,0.00,,,-99.99,,2012-11-01 09:04:00,
2012-11-01 01:09:00,23.5,18.5,0.00,WNW,295,9.2,-999.0,80,0.00,,,-99.99,,2012-11-01 09:09:00,
2012-11-01 01:14:00,23.6,18.9,0.00,WNW,290,8.6,-999.0,81,0.00,,,-99.99,,2012-11-01 09:14:00,
2012-11-01 01:19:00,24.0,18.1,0.00,NW,310,7.7,-999.0,77,0.00,,,-99.99,,2012-11-01 09:19:00,
2012-11-01 01:24:00,23.8,18.6,0.00,WNW,303,9.5,-999.0,80,0.00,,,-99.99,,2012-11-01 09:24:00,
2012-11-01 01:29:00,23.8,18.8,0.00,WNW,297,11.6,-999.0,81,0.00,,,-99.99,,2012-11-01 09:29:00,
2012-11-01 01:34:00,23.8,19.0,0.00,WNW,283,8.3,-999.0,81,0.00,,,-99.99,,2012-11-01 09:34:00,
2012-11-01 01:39:00,24.0,18.9,0.00,WNW,282,8.1,-999.0,80,0.00,,,-99.99,,2012-11-01 09:39:00,
2012-11-01 01:44:00,23.7,19.0,0.00,WNW,289,9.1,-999.0,82,0.00,,,-99.99,,2012-11-01 09:44:00,
2012-11-01 01:49:00,23.5,18.7,0.00,WNW,292,9.1,-999.0,81,0.00,,,-99.99,,2012-11-01 09:49:00,
2012-11-01 01:54:00,23.3,18.8,0.00,WNW,300,9.8,-999.0,82,0.00,,,-99.99,,2012-11-01 09:54:00,
2012-11-01 01:59:00,23.9,19.2,0.00,WNW,295,12.1,-999.0,82,0.00,,,-99.99,,2012-11-01 09:59:00,
2012-11-01 02:04:00,23.6,19.1,0.00,WNW,295,10.7,-999.0,82,0.00,,,-99.99,,2012-11-01 10:04:00,
2012-11-01 02:09:00,23.8,19.3,0.00,WNW,300,11.2,-999.0,83,0.00,,,-99.99,,2012-11-01 10:09:00,
2012-11-01 02:14:00,24.1,19.3,0.00,NW,305,9.7,-999.0,81,0.00,,,-99.99,,2012-11-01 10:14:00,
2012-11-01 02:19:00,24.2,19.0,0.00,NW,304,10.2,-999.0,80,0.00,,,-99.99,,2012-11-01 10:19:00,
2012-11-01 02:24:00,23.9,19.1,0.00,NW,306,11.2,-999.0,81,0.00,,,-99.99,,2012-11-01 10:24:00,
2012-11-01 02:29:00,24.2,19.5,0.00,NW,314,11.4,-999.0,82,0.00,,,-99.99,,2012-11-01 10:29:00,
2012-11-01 02:34:00,23.9,19.6,0.00,NW,319,11.5,-999.0,83,0.00,,,-99.99,,2012-11-01 10:34:00,
2012-11-01 02:39:00,23.9,20.2,0.00,NW,316,13.1,-999.0,85,0.00,,,-99.99,,2012-11-01 10:39:00,
2012-11-01 02:44:00,24.1,20.4,0.00,NW,315,13.6,-999.0,85,0.00,,,-99.99,,2012-11-01 10:44:00,
2012-11-01 02:49:00,24.0,20.7,0.00,NW,325,13.7,-999.0,87,0.00,,,-99.99,,2012-11-01 10:49:00,
2012-11-01 02:54:00,23.9,20.5,0.00,NW,320,15.8,-999.0,87,0.00,,,-99.99,,2012-11-01 10:54:00,
2012-11-01 02:59:00,23.6,20.5,0.00,NW,322,16.4,-999.0,87,0.00,,,-99.99,,2012-11-01 10:59:00,
2012-11-01 03:04:00,23.8,20.3,0.00,NW,312,13.0,-999.0,86,0.00,,,-99.99,,2012-11-01 11:04:00,
2012-11-01 03:09:00,24.1,20.1,0.00,NW,309,12.4,-999.0,84,0.00,,,-99.99,,2012-11-01 11:09:00,
2012-11-01 03:14:00,23.9,19.8,0.00,NW,305,11.3,-999.0,84,0.00,,,-99.99,,2012-11-01 11:14:00,
2012-11-01 03:19:00,24.1,20.1,0.00,NW,312,12.1,-999.0,84,0.00,,,-99.99,,2012-11-01 11:19:00,
2012-11-01 03:24:00,24.0,19.6,0.00,NW,315,12.0,-999.0,83,0.00,,,-99.99,,2012-11-01 11:24:00,
2012-11-01 03:29:00,24.1,19.8,0.00,NW,315,11.8,-999.0,83,0.00,,,-99.99,,2012-11-01 11:29:00,
2012-11-01 03:34:00,24.3,19.6,0.00,NW,311,11.7,-999.0,82,0.00,,,-99.99,,2012-11-01 11:34:00,
2012-11-01 03:39:00,24.4,19.7,0.00,NW,324,13.8,-999.0,82,0.00,,,-99.99,,2012-11-01 11:39:00,
2012-11-01 03:44:00,24.5,19.5,0.00,NW,321,13.6,-999.0,81,0.00,,,-99.99,,2012-11-01 11:44:00,
2012-11-01 03:49:00,24.5,20.0,0.00,NW,313,14.5,-999.0,82,0.00,,,-99.99,,2012-11-01 11:49:00,
2012-11-01 03:54:00,24.3,19.6,0.00,NW,306,10.9,-999.0,81,0.00,,,-99.99,,2012-11-01 11:54:00,
2012-11-01 03:59:00,23.8,19.4,0.00,NW,310,12.1,-999.0,83,0.00,,,-99.99,,2012-11-01 11:59:00,
2012-11-01 04:04:00,24.0,20.1,0.00,WNW,296,10.3,-999.0,85,0.00,,,-99.99,,2012-11-01 12:04:00,
2012-11-01 04:09:00,23.9,20.2,0.00,WNW,290,8.8,-999.0,85,0.00,,,-99.99,,2012-11-01 12:09:00,
2012-11-01 04:14:00,24.1,20.2,0.00,WNW,300,11.4,-999.0,84,0.00,,,-99.99,,2012-11-01 12:14:00,
2012-11-01 04:19:00,24.9,20.3,0.00,WNW,297,9.2,-999.0,82,0.00,,,-99.99,,2012-11-01 12:19:00,
2012-11-01 04:24:00,24.2,20.3,0.00,NW,307,12.2,-999.0,84,0.00,,,-99.99,,2012-11-01 12:24:00,
2012-11-01 04:29:00,24.1,20.3,0.00,NW,305,10.1,-999.0,85,0.00,,,-99.99,,2012-11-01 12:29:00,
2012-11-01 04:34:00,24.2,21.1,0.00,NW,317,14.7,-999.0,87,0.00,,,-99.99,,2012-11-01 12:34:00,
2012-11-01 04:39:00,24.4,20.5,0.00,NW,310,14.1,-999.0,85,0.00,,,-99.99,,2012-11-01 12:39:00,
2012-11-01 04:44:00,24.7,21.3,0.00,WNW,303,15.3,-999.0,86,0.00,,,-99.99,,2012-11-01 12:44:00,
2012-11-01 04:49:00,24.4,21.5,0.00,NW,304,16.1,-999.0,88,0.00,,,-99.99,,2012-11-01 12:49:00,
2012-11-01 04:54:00,24.2,21.4,0.00,WNW,300,12.7,-999.0,89,0.00,,,-99.99,,2012-11-01 12:54:00,
2012-11-01 04:59:00,23.8,21.4,0.00,NW,313,12.4,-999.0,90,0.00,,,-99.99,,2012-11-01 12:59:00,
2012-11-01 05:04:00,24.4,21.9,0.00,NW,314,12.9,-999.0,90,0.00,,,-99.99,,2012-11-01 13:04:00,
2012-11-01 05:09:00,24.5,22.0,0.00,NW,313,11.4,-999.0,90,0.00,,,-99.99,,2012-11-01 13:09:00,
2012-11-01 05:14:00,24.7,21.5,0.00,NW,314,8.9,-999.0,87,0.00,,,-99.99,,2012-11-01 13:14:00,
2012-11-01 05:19:00,24.6,21.1,0.00,NW,315,9.4,-999.0,86,0.00,,,-99.99,,2012-11-01 13:19:00,
2012-11-01 05:24:00,25.0,21.0,0.00,NW,324,12.2,-999.0,84,0.00,,,-99.99,,2012-11-01 13:24:00,
2012-11-01 05:29:00,24.9,20.7,0.00,NW,314,11.6,-999.0,83,0.00,,,-99.99,,2012-11-01 13:29:00,
2012-11-01 05:34:00,25.2,20.8,0.00,NW,314,9.2,-999.0,83,0.00,,,-99.99,,2012-11-01 13:34:00,
2012-11-01 05:39:00,25.0,20.8,0.00,NW,324,12.4,-999.0,84,0.00,,,-99.99,,2012-11-01 13:39:00,
2012-11-01 05:44:00,25.2,20.5,0.00,NW,315,11.8,-999.0,82,0.00,,,-99.99,,2012-11-01 13:44:00,
2012-11-01 05:49:00,25.4,20.8,0.00,NW,326,14.1,-999.0,82,0.00,,,-99.99,,2012-11-01 13:49:00,
2012-11-01 05:54:00,25.1,20.3,0.00,NW,326,15.6,-999.0,82,0.00,,,-99.99,,2012-11-01 13:54:00,
2012-11-01 05:59:00,25.3,20.2,0.00,NNW,342,10.8,-999.0,80,0.00,,,-99.99,,2012-11-01 13:59:00,
2012-11-01 06:04:00,25.3,20.4,0.00,NW,326,10.6,-999.0,81,0.00,,,-99.99,,2012-11-01 14:04:00,
2012-11-01 06:09:00,25.5,20.5,0.00,NW,319,12.7,-999.0,81,0.00,,,-99.99,,2012-11-01 14:09:00,
2012-11-01 06:14:00,25.5,20.5,0.00,NNW,330,8.5,-999.0,81,0.00,,,-99.99,,2012-11-01 14:14:00,
2012-11-01 06:19:00,25.3,20.5,0.00,NNW,329,8.6,-999.0,82,0.00,,,-99.99,,2012-11-01 14:19:00,
2012-11-01 06:24:00,25.5,20.7,0.00,NNW,338,11.4,-999.0,81,0.00,,,-99.99,,2012-11-01 14:24:00,
2012-11-01 06:29:00,25.4,20.6,0.00,NNW,336,9.8,-999.0,82,0.00,,,-99.99,,2012-11-01 14:29:00,
2012-11-01 06:34:00,25.5,20.8,0.00,NNW,335,9.6,-999.0,82,0.00,,,-99.99,,2012-11-01 14:34:00,
2012-11-01 06:39:00,25.6,20.8,0.00,NW,324,9.8,-999.0,82,0.00,,,-99.99,,2012-11-01 14:39:00,
2012-11-01 06:44:00,25.6,21.0,0.00,NNW,341,10.6,-999.0,82,0.00,,,-99.99,,2012-11-01 14:44:00,
2012-11-01 06:49:00,25.6,21.1,0.00,NNW,342,12.3,-999.0,83,0.00,,,-99.99,,2012-11-01 14:49:00,
2012-11-01 06:54:00,25.6,21.3,0.00,NNW,339,11.1,-999.0,83,0.00,,,-99.99,,2012-11-01 14:54:00,
2012-11-01 06:59:00,25.5,21.3,0.00,NNW,343,10.7,-999.0,84,0.00,,,-99.99,,2012-11-01 14:59:00,
2012-11-01 07:04:00,25.5,21.4,0.00,NNW,335,10.2,-999.0,84,0.00,,,-99.99,,2012-11-01 15:04:00,
2012-11-01 07:09:00,25.8,21.6,0.00,NNW,330,7.0,-999.0,84,0.00,,,-99.99,,2012-11-01 15:09:00,
2012-11-01 07:14:00,25.8,21.4,0.00,NNW,330,11.0,-999.0,83,0.00,,,-99.99,,2012-11-01 15:14:00,
2012-11-01 07:19:00,25.8,21.5,0.00,NW,325,10.3,-999.0,83,0.00,,,-99.99,,2012-11-01 15:19:00,
2012-11-01 07:24:00,25.8,21.7,0.00,NNW,327,11.5,-999.0,84,0.00,,,-99.99,,2012-11-01 15:24:00,
2012-11-01 07:29:00,25.9,21.7,0.00,NNW,338,11.8,-999.0,84,0.00,,,-99.99,,2012-11-01 15:29:00,
2012-11-01 07:34:00,26.2,21.6,0.00,NNW,335,10.4,-999.0,82,0.00,,,-99.99,,2012-11-01 15:34:00,
2012-11-01 07:39:00,26.1,21.5,0.00,NNW,336,8.8,-999.0,82,0.00,,,-99.99,,2012-11-01 15:39:00,
2012-11-01 07:44:00,26.2,21.2,0.00,NNW,345,9.6,-999.0,81,0.00,,,-99.99,,2012-11-01 15:44:00,
2012-11-01 07:49:00,26.3,21.5,0.00,NNW,342,15.3,-999.0,81,0.00,,,-99.99,,2012-11-01 15:49:00,
2012-11-01 07:54:00,26.6,21.3,0.00,NW,322,12.4,-999.0,80,0.00,,,-99.99,,2012-11-01 15:54:00,
2012-11-01 07:59:00,26.2,21.0,0.00,NNW,342,13.1,-999.0,80,0.00,,,-99.99,,2012-11-01 15:59:00,
2012-11-01 08:05:00,27.0,20.8,0.00,NW,323,13.9,-999.0,77,0.00,,,-99.99,,2012-11-01 16:05:00,
2012-11-01 08:10:00,26.9,20.8,0.00,NNW,331,12.4,-999.0,77,0.00,,,-99.99,,2012-11-01 16:10:00,
2012-11-01 08:15:00,26.7,20.7,0.00,NW,317,14.2,-999.0,77,0.00,,,-99.99,,2012-11-01 16:15:00,
2012-11-01 08:20:00,26.7,21.0,0.00,NNW,344,10.5,-999.0,78,0.00,,,-99.99,,2012-11-01 16:20:00,
2012-11-01 08:25:00,26.9,21.3,0.00,NNW,335,13.4,-999.0,79,0.00,,,-99.99,,2012-11-01 16:25:00,
2012-11-01 08:30:00,27.0,21.0,0.00,North,353,14.2,-999.0,78,0.00,,,-99.99,,2012-11-01 16:30:00,
2012-11-01 08:35:00,27.3,21.0,0.00,NNW,346,11.6,-999.0,76,0.00,,,-99.99,,2012-11-01 16:35:00,
2012-11-01 08:40:00,27.2,21.2,0.00,North,0,10.0,-999.0,77,0.00,,,-99.99,,2012-11-01 16:40:00,
2012-11-01 08:45:00,28.1,20.0,0.00,North,0,17.0,-999.0,71,0.00,,,-99.99,,2012-11-01 16:45:00,
2012-11-01 08:50:00,28.4,20.2,0.00,North,4,11.4,-999.0,71,0.00,,,-99.99,,2012-11-01 16:50:00,
2012-11-01 08:55:00,29.0,19.3,0.00,North,11,21.2,-999.0,66,0.00,,,-99.99,,2012-11-01 16:55:00,
2012-11-01 09:00:00,29.4,18.5,0.00,North,11,21.4,-999.0,63,0.00,,,-99.99,,2012-11-01 17:00:00,
2012-11-01 09:05:00,29.3,18.6,0.00,NNE,13,17.8,-999.0,63,0.00,,,-99.99,,2012-11-01 17:05:00,
2012-11-01 09:10:00,29.0,18.8,0.00,North,5,15.7,-999.0,65,0.00,,,-99.99,,2012-11-01 17:10:00,
2012-11-01 09:15:00,29.2,18.3,0.00,North,2,17.5,-999.0,63,0.00,,,-99.99,,2012-11-01 17:15:00,
2012-11-01 09:20:00,29.5,18.2,0.00,North,9,24.2,-999.0,62,0.00,,,-99.99,,2012-11-01 17:20:00,
2012-11-01 09:25:00,29.5,18.4,0.00,NNE,14,20.0,-999.0,62,0.00,,,-99.99,,2012-11-01 17:25:00,
2012-11-01 09:30:00,29.3,18.8,0.00,North,0,21.3,-999.0,64,0.00,,,-99.99,,2012-11-01 17:30:00,
2012-11-01 09:35:00,29.4,19.5,0.00,North,6,18.4,-999.0,66,0.00,,,-99.99,,2012-11-01 17:35:00,
2012-11-01 09:40:00,29.5,20.3,0.00,North,11,20.1,-999.0,68,0.00,,,-99.99,,2012-11-01 17:40:00,
2012-11-01 09:45:00,29.6,20.9,0.00,North,11,16.5,-999.0,69,0.00,,,-99.99,,2012-11-01 17:45:00,
2012-11-01 09:50:00,29.8,20.6,0.00,North,6,25.3,-999.0,68,0.00,,,-99.99,,2012-11-01 17:50:00,
2012-11-01 09:55:00,29.6,20.6,0.00,North,354,19.2,-999.0,68,0.00,,,-99.99,,2012-11-01 17:55:00,
2012-11-01 10:00:00,29.8,20.6,0.00,North,3,19.0,-999.0,68,0.00,,,-99.99,,2012-11-01 18:00:00,
2012-11-01 10:05:00,29.7,20.0,0.00,NNE,21,22.6,-999.0,66,0.00,,,-99.99,,2012-11-01 18:05:00,
2012-11-01 10:10:00,29.6,20.2,0.00,NNW,345,15.7,-999.0,67,0.00,,,-99.99,,2012-11-01 18:10:00,
2012-11-01 10:15:00,29.8,19.6,0.00,North,1,21.4,-999.0,65,0.00,,,-99.99,,2012-11-01 18:15:00,
2012-11-01 10:20:00,29.8,19.8,0.00,North,0,20.8,-999.0,65,0.00,,,-99.99,,2012-11-01 18:20:00,
2012-11-01 10:25:00,30.0,19.5,0.00,North,0,16.9,-999.0,64,0.00,,,-99.99,,2012-11-01 18:25:00,
2012-11-01 10:30:00,30.1,19.6,0.00,North,4,23.1,-999.0,64,0.00,,,-99.99,,2012-11-01 18:30:00,
2012-11-01 10:35:00,30.0,19.4,0.00,North,0,20.2,-999.0,64,0.00,,,-99.99,,2012-11-01 18:35:00,
2012-11-01 10:41:00,30.4,19.8,0.00,North,4,27.4,-999.0,64,0.00,,,-99.99,,2012-11-01 18:41:00,
2012-11-01 10:46:00,30.4,20.2,0.00,North,351,17.8,-999.0,65,0.00,,,-99.99,,2012-11-01 18:46:00,
2012-11-01 10:51:00,30.4,20.2,0.00,North,0,19.7,-999.0,65,0.00,,,-99.99,,2012-11-01 18:51:00,
2012-11-01 10:56:00,30.6,20.9,0.00,North,0,21.6,-999.0,66,0.00,,,-99.99,,2012-11-01 18:56:00,
2012-11-01 11:01:00,30.7,21.8,0.00,NNE,15,22.5,-999.0,69,0.00,,,-99.99,,2012-11-01 19:01:00,
2012-11-01 11:07:00,30.6,22.3,0.00,NNE,16,22.5,-999.0,70,0.00,,,-99.99,,2012-11-01 19:07:00,
2012-11-01 11:12:00,30.1,23.0,0.00,NNE,26,13.2,-999.0,74,0.00,,,-99.99,,2012-11-01 19:12:00,
2012-11-01 11:17:00,29.0,27.5,0.00,NE,53,21.5,-999.0,93,0.00,,,-99.99,,2012-11-01 19:17:00,
2012-11-01 11:23:00,28.6,27.7,0.00,North,4,17.6,-999.0,96,0.00,,,-99.99,,2012-11-01 19:23:00,
2012-11-01 11:28:00,28.5,27.8,0.00,NNE,25,18.4,-999.0,97,0.00,,,-99.99,,2012-11-01 19:28:00,
2012-11-01 11:34:00,28.6,28.0,0.00,NNE,29,20.1,-999.0,97,0.00,,,-99.99,,2012-11-01 19:34:00,
2012-11-01 11:39:00,28.6,28.0,0.00,North,6,15.5,-999.0,97,0.00,,,-99.99,,2012-11-01 19:39:00,
2012-11-01 11:45:00,28.9,28.4,0.00,North,4,14.0,-999.0,98,0.00,,,-99.99,,2012-11-01 19:45:00,
2012-11-01 11:50:00,29.0,28.6,0.00,North,6,26.7,-999.0,98,0.00,,,-99.99,,2012-11-01 19:50:00,
2012-11-01 11:55:00,29.1,28.7,0.00,NE,42,21.4,-999.0,98,0.00,,,-99.99,,2012-11-01 19:55:00,
2012-11-01 12:00:00,29.0,28.5,0.00,NE,42,15.9,-999.0,98,0.00,,,-99.99,,2012-11-01 20:00:00,
2012-11-01 12:05:00,29.4,28.9,0.00,NNE,24,20.6,-999.0,98,0.00,,,-99.99,,2012-11-01 20:05:00,
2012-11-01 12:12:00,29.7,28.1,0.00,North,354,16.8,-999.0,93,0.00,,,-99.99,,2012-11-01 20:12:00,
2012-11-01 12:17:00,30.2,27.9,0.00,North,3,18.7,-999.0,91,0.00,,,-99.99,,2012-11-01 20:17:00,
2012-11-01 12:22:00,30.7,27.0,0.00,NNE,14,29.6,-999.0,85,0.00,,,-99.99,,2012-11-01 20:22:00,
2012-11-01 12:27:00,31.2,26.8,0.00,NNE,18,17.7,-999.0,83,0.00,,,-99.99,,2012-11-01 20:27:00,
2012-11-01 12:32:00,31.4,25.9,0.00,North,2,21.2,-999.0,79,0.00,,,-99.99,,2012-11-01 20:32:00,
2012-11-01 12:37:00,31.3,24.5,0.00,NNE,24,27.9,-999.0,75,0.00,,,-99.99,,2012-11-01 20:37:00,
2012-11-01 12:42:00,31.1,25.7,0.00,North,9,20.9,-999.0,80,0.00,,,-99.99,,2012-11-01 20:42:00,
2012-11-01 12:47:00,31.2,26.3,0.00,WNW,284,21.9,-999.0,81,0.00,,,-99.99,,2012-11-01 20:47:00,
2012-11-01 12:52:00,31.6,26.7,0.00,NNE,13,28.5,-999.0,81,0.00,,,-99.99,,2012-11-01 20:52:00,
2012-11-01 12:57:00,31.7,26.3,0.00,NNE,15,22.9,-999.0,80,0.00,,,-99.99,,2012-11-01 20:57:00,
2012-11-01 13:02:00,31.9,26.2,0.00,NNE,15,22.4,-999.0,79,0.00,,,-99.99,,2012-11-01 21:02:00,
2012-11-01 13:07:00,32.0,26.2,0.00,NNE,14,20.6,-999.0,78,0.00,,,-99.99,,2012-11-01 21:07:00,
2012-11-01 13:12:00,32.1,25.1,0.00,NNE,21,30.0,-999.0,75,0.00,,,-99.99,,2012-11-01 21:12:00,
2012-11-01 13:17:00,31.8,28.5,0.00,NNW,344,19.5,-999.0,87,0.00,,,-99.99,,2012-11-01 21:17:00,
2012-11-01 13:22:00,31.7,27.7,0.00,NNE,16,21.5,-999.0,84,0.00,,,-99.99,,2012-11-01 21:22:00,
2012-11-01 13:27:00,31.4,25.8,0.00,North,3,23.8,-999.0,79,0.00,,,-99.99,,2012-11-01 21:27:00,
2012-11-01 13:32:00,30.9,27.4,0.00,NNE,12,20.6,-999.0,86,0.00,,,-99.99,,2012-11-01 21:32:00,
2012-11-01 13:37:00,31.1,27.1,0.00,North,5,20.9,-999.0,85,0.00,,,-99.99,,2012-11-01 21:37:00,
2012-11-01 13:42:00,31.2,28.0,0.00,NNW,347,17.3,-999.0,88,0.00,,,-99.99,,2012-11-01 21:42:00,
2012-11-01 13:47:00,31.6,28.0,0.00,North,2,17.2,-999.0,86,0.00,,,-99.99,,2012-11-01 21:47:00,
2012-11-01 13:52:00,31.0,27.9,0.00,NNE,13,30.6,-999.0,88,0.00,,,-99.99,,2012-11-01 21:52:00,
2012-11-01 13:57:00,31.4,27.2,0.00,North,3,29.2,-999.0,84,0.00,,,-99.99,,2012-11-01 21:57:00,
2012-11-01 14:02:00,31.9,27.0,0.00,North,3,31.3,-999.0,81,0.00,,,-99.99,,2012-11-01 22:02:00,
2012-11-01 14:08:00,33.4,26.9,0.00,NNE,17,19.8,-999.0,76,0.00,,,-99.99,,2012-11-01 22:08:00,
2012-11-01 14:13:00,32.6,25.7,0.00,North,2,31.6,-999.0,75,0.00,,,-99.99,,2012-11-01 22:13:00,
2012-11-01 14:18:00,32.7,25.6,0.00,North,0,24.7,-999.0,74,0.02,,,-99.99,,2012-11-01 22:18:00,
2012-11-01 14:23:00,32.6,27.7,0.00,North,4,25.2,-999.0,81,0.02,,,-99.99,,2012-11-01 22:23:00,
2012-11-01 14:28:00,32.0,28.3,0.00,North,353,24.6,-999.0,85,0.02,,,-99.99,,2012-11-01 22:28:00,
2012-11-01 14:33:00,31.8,28.5,0.00,North,349,28.5,-999.0,87,0.02,,,-99.99,,2012-11-01 22:33:00,
2012-11-01 14:38:00,31.8,29.0,0.00,NNE,16,28.9,-999.0,89,0.02,,,-99.99,,2012-11-01 22:38:00,
2012-11-01 14:43:00,31.1,29.6,0.00,North,2,23.4,-999.0,94,0.02,,,-99.99,,2012-11-01 22:43:00,
2012-11-01 14:48:00,31.0,29.7,0.00,NNW,341,24.5,-999.0,94,0.02,,,-99.99,,2012-11-01 22:48:00,
2012-11-01 14:53:00,31.2,29.6,0.00,North,351,28.5,-999.0,93,0.02,,,-99.99,,2012-11-01 22:53:00,
2012-11-01 14:58:00,31.1,29.9,0.00,NNE,21,23.0,-999.0,95,0.02,,,-99.99,,2012-11-01 22:58:00,
2012-11-01 15:03:00,30.6,29.6,0.00,North,7,43.0,-999.0,96,0.00,,,-99.99,,2012-11-01 23:03:00,
2012-11-01 15:08:00,30.2,28.5,0.00,North,0,38.9,-999.0,93,0.00,,,-99.99,,2012-11-01 23:08:00,
2012-11-01 15:13:00,31.0,28.0,0.00,North,0,22.7,-999.0,88,0.00,,,-99.99,,2012-11-01 23:13:00,
2012-11-01 15:18:00,31.2,28.7,0.00,North,0,26.0,-999.0,90,0.00,,,-99.99,,2012-11-01 23:18:00,
2012-11-01 15:23:00,31.8,28.6,0.00,North,351,28.2,-999.0,87,0.00,,,-99.99,,2012-11-01 23:23:00,
2012-11-01 15:28:00,32.2,28.3,0.00,North,4,30.9,-999.0,85,0.00,,,-99.99,,2012-11-01 23:28:00,
2012-11-01 15:33:00,32.3,28.5,0.00,North,354,40.4,-999.0,85,0.00,,,-99.99,,2012-11-01 23:33:00,
2012-11-01 15:38:00,32.3,28.4,0.00,North,0,39.2,-999.0,85,0.00,,,-99.99,,2012-11-01 23:38:00,
2012-11-01 15:43:00,32.3,29.0,0.00,North,10,31.6,-999.0,87,0.00,,,-99.99,,2012-11-01 23:43:00,
2012-11-01 15:48:00,32.4,28.7,0.00,North,354,30.5,-999.0,86,0.00,,,-99.99,,2012-11-01 23:48:00,
2012-11-01 15:53:00,32.5,29.1,0.00,NNW,348,19.2,-999.0,87,0.00,,,-99.99,,2012-11-01 23:53:00,
2012-11-01 15:58:00,32.6,28.5,0.00,North,9,31.6,-999.0,84,0.00,,,-99.99,,2012-11-01 23:58:00,
2012-11-01 16:04:00,32.8,28.7,0.00,North,3,31.8,-999.0,84,0.00,,,-99.99,,2012-11-02 00:04:00,
2012-11-01 16:09:00,32.7,27.7,0.00,North,4,31.7,-999.0,81,0.00,,,-99.99,,2012-11-02 00:09:00,
2012-11-01 16:14:00,33.0,28.2,0.00,North,354,27.6,-999.0,82,0.00,,,-99.99,,2012-11-02 00:14:00,
2012-11-01 16:19:00,33.1,28.0,0.00,North,7,36.4,-999.0,81,0.00,,,-99.99,,2012-11-02 00:19:00,
2012-11-01 16:25:00,33.1,28.0,0.00,North,0,33.6,-999.0,81,0.00,,,-99.99,,2012-11-02 00:25:00,
2012-11-01 16:30:00,33.2,28.6,0.00,North,6,26.0,-999.0,82,0.00,,,-99.99,,2012-11-02 00:30:00,
2012-11-01 16:35:00,32.8,29.2,0.00,North,5,37.4,-999.0,86,0.00,,,-99.99,,2012-11-02 00:35:00,
2012-11-01 16:40:00,32.8,29.5,0.00,North,4,21.5,-999.0,87,0.00,,,-99.99,,2012-11-02 00:40:00,
2012-11-01 16:46:00,32.7,29.5,0.00,North,6,23.7,-999.0,87,0.00,,,-99.99,,2012-11-02 00:46:00,
2012-11-01 16:51:00,32.9,30.1,0.00,NNE,12,24.3,-999.0,89,0.00,,,-99.99,,2012-11-02 00:51:00,
2012-11-01 16:56:00,32.5,29.5,0.00,NNE,19,32.4,-999.0,88,0.00,,,-99.99,,2012-11-02 00:56:00,
2012-11-01 17:01:00,32.2,30.0,0.00,North,2,27.0,-999.0,91,0.00,,,-99.99,,2012-11-02 01:01:00,
2012-11-01 17:06:00,32.3,29.2,0.00,NNE,13,27.4,-999.0,87,0.00,,,-99.99,,2012-11-02 01:06:00,
2012-11-01 17:12:00,32.2,28.6,0.00,North,0,33.7,-999.0,86,0.00,,,-99.99,,2012-11-02 01:12:00,
2012-11-01 17:17:00,32.7,29.0,0.00,North,354,31.9,-999.0,86,0.00,,,-99.99,,2012-11-02 01:17:00,
2012-11-01 17:22:00,32.5,29.0,0.00,North,1,28.1,-999.0,86,0.00,,,-99.99,,2012-11-02 01:22:00,
2012-11-01 17:28:00,32.4,29.2,0.00,North,7,29.1,-999.0,87,0.00,,,-99.99,,2012-11-02 01:28:00,
2012-11-01 17:34:00,32.3,29.7,0.00,North,4,26.1,-999.0,89,0.00,,,-99.99,,2012-11-02 01:34:00,
2012-11-01 17:39:00,32.3,30.0,0.00,West,261,30.4,-999.0,91,0.00,,,-99.99,,2012-11-02 01:39:00,
2012-11-01 17:44:00,31.5,30.4,0.00,NNW,346,36.7,-999.0,95,0.00,,,-99.99,,2012-11-02 01:44:00,
2012-11-01 17:49:00,31.5,30.7,0.00,North,0,34.4,-999.0,96,0.00,,,-99.99,,2012-11-02 01:49:00,
2012-11-01 17:54:00,31.6,30.9,0.00,North,0,32.5,-999.0,97,0.00,,,-99.99,,2012-11-02 01:54:00,
2012-11-01 18:00:00,31.7,31.1,0.00,North,354,34.6,-999.0,97,0.00,,,-99.99,,2012-11-02 02:00:00,
2012-11-01 18:05:00,32.0,31.2,0.00,North,6,25.7,-999.0,97,0.00,,,-99.99,,2012-11-02 02:05:00,
2012-11-01 18:10:00,32.5,30.5,0.00,North,1,41.0,-999.0,92,0.02,,,-99.99,,2012-11-02 02:10:00,
2012-11-01 18:15:00,32.6,30.9,0.00,North,8,27.8,-999.0,93,0.02,,,-99.99,,2012-11-02 02:15:00,
2012-11-01 18:21:00,32.3,31.0,0.00,North,2,41.4,-999.0,95,0.02,,,-99.99,,2012-11-02 02:21:00,
2012-11-01 18:26:00,32.4,30.8,0.00,North,5,33.6,-999.0,93,0.02,,,-99.99,,2012-11-02 02:26:00,
2012-11-01 18:31:00,32.3,30.9,0.00,North,0,23.2,-999.0,94,0.02,,,-99.99,,2012-11-02 02:31:00,
2012-11-01 18:36:00,32.6,30.1,0.00,North,11,32.6,-999.0,90,0.02,,,-99.99,,2012-11-02 02:36:00,
2012-11-01 18:41:00,33.1,29.1,0.00,NNE,15,42.4,-999.0,85,0.02,,,-99.99,,2012-11-02 02:41:00,
2012-11-01 18:46:00,33.2,29.6,0.00,North,8,37.7,-999.0,86,0.02,,,-99.99,,2012-11-02 02:46:00,
2012-11-01 18:51:00,33.4,29.6,0.00,North,0,20.0,-999.0,85,0.02,,,-99.99,,2012-11-02 02:51:00,
2012-11-01 18:58:00,33.3,29.0,0.00,North,7,31.4,-999.0,84,0.02,,,-99.99,,2012-11-02 02:58:00,
2012-11-01 19:03:00,33.4,29.8,0.00,NNW,342,38.5,-999.0,86,0.00,,,-99.99,,2012-11-02 03:03:00,
2012-11-01 19:08:00,33.2,30.6,0.00,North,7,33.6,-999.0,89,0.00,,,-99.99,,2012-11-02 03:08:00,
2012-11-01 19:13:00,33.2,31.1,0.00,North,349,36.9,-999.0,91,0.00,,,-99.99,,2012-11-02 03:13:00,
2012-11-01 19:18:00,32.9,31.3,0.00,North,8,35.2,-999.0,93,0.00,,,-99.99,,2012-11-02 03:18:00,
2012-11-01 19:23:00,33.2,31.5,0.00,North,6,32.1,-999.0,93,0.00,,,-99.99,,2012-11-02 03:23:00,
2012-11-01 19:28:00,33.0,31.9,0.00,North,10,39.1,-999.0,95,0.00,,,-99.99,,2012-11-02 03:28:00,
2012-11-01 19:33:00,32.7,32.0,0.00,North,1,43.5,-999.0,97,0.00,,,-99.99,,2012-11-02 03:33:00,
2012-11-01 19:38:00,32.8,32.0,0.00,North,2,40.1,-999.0,96,0.01,,,-99.99,,2012-11-02 03:38:00,
2012-11-01 19:43:00,32.8,32.0,0.00,North,351,32.0,-999.0,96,0.01,,,-99.99,,2012-11-02 03:43:00,
2012-11-01 19:49:00,33.1,32.3,0.00,NNW,347,38.6,-999.0,96,0.01,,,-99.99,,2012-11-02 03:49:00,
2012-11-01 19:54:00,33.0,31.9,0.00,North,7,41.2,-999.0,95,0.07,,,-99.99,,2012-11-02 03:54:00,
2012-11-01 19:59:00,33.0,31.2,0.00,NNW,337,42.4,-999.0,93,0.00,,,-99.99,,2012-11-02 03:59:00,
2012-11-01 20:00:00,33.0,31.0,0.00,NNE,18,49.8,-999.0,92,0.00,,,-99.99,,2012-11-02 04:00:00,
2012-11-01 20:03:00,33.0,31.2,0.00,North,353,42.3,-999.0,93,0.00,,,-99.99,,2012-11-02 04:03:00,
2012-11-01 20:08:00,33.0,31.8,0.00,West,265,37.3,-999.0,95,0.00,,,-99.99,,2012-11-02 04:08:00,
2012-11-01 20:12:00,33.1,32.1,0.00,North,354,42.1,-999.0,95,0.00,,,-99.99,,2012-11-02 04:12:00,
2012-11-01 20:17:00,33.0,32.1,0.00,NNW,343,36.7,-999.0,96,0.00,,,-99.99,,2012-11-02 04:17:00,
2012-11-01 20:22:00,31.9,31.1,0.00,North,4,45.8,-999.0,96,0.00,,,-99.99,,2012-11-02 04:22:00,
2012-11-01 20:27:00,31.8,31.0,0.00,North,0,43.5,-999.0,96,0.00,,,-99.99,,2012-11-02 04:27:00,
2012-11-01 20:32:00,32.2,31.2,0.00,North,0,44.1,-999.0,96,0.00,,,-99.99,,2012-11-02 04:32:00,
2012-11-01 20:37:00,32.5,31.7,0.00,North,2,39.1,-999.0,97,0.00,,,-99.99,,2012-11-02 04:37:00,
2012-11-01 20:42:00,32.6,32.0,0.00,North,9,41.2,-999.0,97,0.00,,,-99.99,,2012-11-02 04:42:00,
2012-11-01 20:47:00,32.7,32.2,0.00,North,351,37.0,-999.0,98,0.00,,,-99.99,,2012-11-02 04:47:00,
2012-11-01 20:52:00,32.6,32.3,0.00,North,349,42.6,-999.0,98,0.00,,,-99.99,,2012-11-02 04:52:00,
2012-11-01 20:57:00,32.8,32.4,0.00,NNW,348,48.3,-999.0,98,0.00,,,-99.99,,2012-11-02 04:57:00,
2012-11-01 21:02:00,33.0,32.7,0.00,North,0,46.0,-999.0,98,0.00,,,-99.99,,2012-11-02 05:02:00,
2012-11-01 21:07:00,33.0,32.7,0.00,North,6,37.3,-999.0,98,0.00,,,-99.99,,2012-11-02 05:07:00,
2012-11-01 21:12:00,33.0,32.8,0.00,North,0,32.3,-999.0,99,0.00,,,-99.99,,2012-11-02 05:12:00,
2012-11-01 21:17:00,33.1,32.9,0.00,North,0,36.0,-999.0,99,0.00,,,-99.99,,2012-11-02 05:17:00,
2012-11-01 21:22:00,32.9,32.7,0.00,North,0,37.2,-999.0,99,0.00,,,-99.99,,2012-11-02 05:22:00,
2012-11-01 21:28:00,33.0,32.8,0.00,North,352,25.9,-999.0,99,0.01,,,-99.99,,2012-11-02 05:28:00,
2012-11-01 21:33:00,33.1,32.8,0.00,North,354,37.4,-999.0,99,0.02,,,-99.99,,2012-11-02 05:33:00,
2012-11-01 21:38:00,33.5,33.3,0.00,North,352,44.4,-999.0,99,0.03,,,-99.99,,2012-11-02 05:38:00,
2012-11-01 21:43:00,33.9,33.8,0.00,North,0,45.9,-999.0,99,0.04,,,-99.99,,2012-11-02 05:43:00,
2012-11-01 21:48:00,34.0,33.8,0.00,North,351,41.6,-999.0,99,0.04,,,-99.99,,2012-11-02 05:48:00,
2012-11-01 21:53:00,33.7,33.4,0.00,North,351,41.9,-999.0,99,0.12,,,-99.99,,2012-11-02 05:53:00,
2012-11-01 21:58:00,33.6,33.5,0.00,North,1,43.1,-999.0,99,0.16,,,-99.99,,2012-11-02 05:58:00,
2012-11-01 22:03:00,33.4,33.2,0.00,North,352,52.6,-999.0,99,0.10,,,-99.99,,2012-11-02 06:03:00,
2012-11-01 22:08:00,33.6,33.5,0.00,North,1,49.5,-999.0,99,0.18,,,-99.99,,2012-11-02 06:08:00,
2012-11-01 22:13:00,33.5,33.4,0.00,NNW,344,46.4,-999.0,99,0.35,,,-99.99,,2012-11-02 06:13:00,
2012-11-01 22:19:00,33.7,33.6,0.00,North,0,50.5,-999.0,99,0.39,,,-99.99,,2012-11-02 06:19:00,
2012-11-01 22:24:00,33.5,33.4,0.00,North,8,44.8,-999.0,99,0.41,,,-99.99,,2012-11-02 06:24:00,
2012-11-01 22:29:00,33.6,33.4,0.00,North,350,40.2,-999.0,99,0.41,,,-99.99,,2012-11-02 06:29:00,
2012-11-01 22:34:00,33.5,33.4,0.00,North,352,35.1,-999.0,99,0.46,,,-99.99,,2012-11-02 06:34:00,
2012-11-01 22:39:00,33.8,33.6,0.00,North,349,33.2,-999.0,99,0.48,,,-99.99,,2012-11-02 06:39:00,
2012-11-01 22:44:00,33.9,33.8,0.00,North,0,55.7,-999.0,99,0.50,,,-99.99,,2012-11-02 06:44:00,
2012-11-01 22:49:00,34.0,33.8,0.00,North,0,48.6,-999.0,99,0.57,,,-99.99,,2012-11-02 06:49:00,
2012-11-01 22:55:00,34.0,33.8,0.00,ESE,103,45.8,-999.0,99,0.59,,,-99.99,,2012-11-02 06:55:00,
2012-11-01 23:00:00,34.0,33.9,0.00,North,0,57.0,-999.0,99,0.10,,,-99.99,,2012-11-02 07:00:00,
2012-11-01 23:05:00,34.1,33.9,0.00,North,353,45.3,-999.0,99,0.15,,,-99.99,,2012-11-02 07:05:00,
2012-11-01 23:10:00,33.7,33.5,0.00,NNW,338,44.7,-999.0,99,0.17,,,-99.99,,2012-11-02 07:10:00,
2012-11-01 23:15:00,33.8,33.6,0.00,North,353,39.5,-999.0,99,0.19,,,-99.99,,2012-11-02 07:15:00,
2012-11-01 23:20:00,33.5,33.4,0.00,North,354,44.4,-999.0,99,0.23,,,-99.99,,2012-11-02 07:20:00,
2012-11-01 23:25:00,33.6,33.5,0.00,North,2,40.1,-999.0,99,0.30,,,-99.99,,2012-11-02 07:25:00,
2012-11-01 23:30:00,33.7,33.6,0.00,North,4,45.5,-999.0,99,0.32,,,-99.99,,2012-11-02 07:30:00,
2012-11-01 23:35:00,33.5,33.3,0.00,NNW,348,55.6,-999.0,99,0.41,,,-99.99,,2012-11-02 07:35:00,
2012-11-01 23:41:00,33.6,33.5,0.00,NNW,342,34.7,-999.0,99,0.45,,,-99.99,,2012-11-02 07:41:00,
2012-11-01 23:46:00,33.6,33.4,0.00,NNW,346,49.2,-999.0,99,0.54,,,-99.99,,2012-11-02 07:46:00,
2012-11-01 23:51:00,33.4,33.2,0.00,North,352,47.3,-999.0,99,0.54,,,-99.99,,2012-11-02 07:51:00,
2012-11-01 23:56:00,33.7,33.5,0.00,North,0,44.5,-999.0,99,0.54,,,-99.99,,2012-11-02 07:56:00,